Weather Roundup
Issued by NWS

Home | Current Version | Previous Version | Graphics & Text | Print | Product List | Glossary Off
Versions: 1 2 3 4 5 6 7 8 9 10 11 12 13 14 15 16 17 18 19 20 21 22 23 24 25 26 27 28 29 30 31 32 33 34 35 36 37 38 39 40 41 42 43 44 45 46 47 48 49 50

000
NZUS93 KARX 010110
HRRWXR

CURRENT HOURLY OBSERVATIONS ACROSS
MUCH OF THE UPPER MISSISSIPPI VALLEY
NATIONAL WEATHER SERVICE LA CROSSE WI
700 PM CST SAT FEB 28 2015


...SOUTHEAST MINNESOTA...


CITY           SKY/WX    TMP DP  RH WIND       PRES   REMARKS
ROCHESTER      CLOUDY    11   2  67 S12       30.37S WCI  -3
ROCHESTER/MAYO CLOUDY    12   0  59 SE9       30.38S WCI  -1
WINONA         CLOUDY    18   1  49 S5        30.44F WCI  11
AUSTIN         CLOUDY    10   3  72 S9        30.37S WCI  -2
ALBERT LEA     PTCLDY    10   3  72 S10       30.35S WCI  -3
DODGE CENTER   PTCLDY     7   1  78 S9        30.35S WCI  -7
PRESTON        CLOUDY    11   2  66 S8        30.39S WCI   0
OWATONNA       CLEAR     10   1  67 SE12      30.36R WCI  -4
FARIBAULT      CLEAR     10   1  67 S7        30.36S WCI   0
$$

...ELSEWHERE IN MINNESOTA...


CITY           SKY/WX    TMP DP  RH WIND       PRES   REMARKS
MINNEAPOLIS    MOCLDY    14   2  58 S13       30.37S WCI   0
INTNL FALLS    MOCLDY    20   1  43 S5        30.12S WCI  13
DULUTH         MOCLDY    17   1  49 S16       30.23R WCI   2
RED WING       CLOUDY    16   0  48 S8        30.39F WCI   5
REDWOOD FALLS  MOCLDY    18  11  74 S12       30.28S WCI   5
MANKATO        CLOUDY    14   3  62 S13       30.34S WCI   0
FAIRMONT       CLOUDY    18  10  73 S14       30.30F WCI   4
$$

...SOUTHWEST WISCONSIN...


CITY           SKY/WX    TMP DP  RH WIND       PRES   REMARKS
LA CROSSE      CLOUDY    18   1  47 S10       30.45S WCI   6
PRAIRIE DU CHI PTCLDY    15  -4  42 SE5       30.48S WCI   7
BOSCOBEL       MOCLDY    15   1  53 S3        30.49F
LONE ROCK      CLOUDY    14  -1  51 S7        30.50R WCI   4
PLATTEVILLE    MOCLDY    13   4  67 E8        30.46S WCI   1
FORT MC COY    CLOUDY    17  -3  42 S3        30.45F
CAMP DOUGLAS   CLOUDY    16  -2  46 S9        30.44S WCI   4
VIROQUA        CLOUDY    14   1  56 S8        30.41S WCI   3
WIS DELLS      CLOUDY    15   2  57 S8        30.45S WCI   3
$$

...ELSEWHERE IN WISCONSIN...


CITY           SKY/WX    TMP DP  RH WIND       PRES   REMARKS
MILWAUKEE      CLOUDY    18   6  59 S6        30.52F WCI  10
MADISON        CLOUDY    15  -1  49 S12       30.48S WCI   2
GREEN BAY      CLEAR     15   0  51 S6        30.49S WCI   6
EAU CLAIRE     CLOUDY    15  -1  49 S12       30.39F WCI   2
BLACK RVR FLS  CLOUDY    17  -5  37 S7        30.42F WCI   8
MEDFORD        PTCLDY     9  -4  56 S6        30.35F WCI  -1
WAUSAU         CLEAR     14  -5  42 S8        30.38S WCI   3
WIS RAPIDS     CLOUDY    14  -5  42 S5        30.44F WCI   6
MARSHFIELD     CLOUDY    15  -2  46 S8        30.39F WCI   4
RICE LAKE      CLOUDY    13   0  55 S6        30.37S WCI   4
$$

...NORTHEAST IOWA...


CITY           SKY/WX    TMP DP  RH WIND       PRES   REMARKS
DECORAH        CLOUDY    12   1  62 SE7       30.41S WCI   2
MASON CITY     CLOUDY    12   5  73 SE10      30.39S WCI  -1
CHARLES CITY   CLOUDY    12   5  73 SE9       30.40F WCI   0
OELWEIN        CLOUDY    10   1  67 SE12      30.43S WCI  -4
$$

...ELSEWHERE IN IOWA...


CITY           SKY/WX    TMP DP  RH WIND       PRES   REMARKS
DES MOINES     FLURRIES  21  16  81 SE6       30.39S WCI  13
IOWA CITY      LGT SNOW  16  12  84 SE7       30.48F FOG     WCI   6
FORT DODGE     PTCLDY    18  10  73 S6        30.36S WCI   9
$$

...NORTHERN ILLINOIS...


CITY           SKY/WX    TMP DP  RH WIND       PRES   REMARKS
CHICAGO-OHARE  CLOUDY    20   4  50 S8        30.53R WCI  10
CHICAGO-MIDWAY FLURRIES  21   9  59 S10       30.55R WCI  10
MOLINE         CLOUDY    17  10  74 E8        30.49F WCI   7
ROCKFORD       LGT SNOW  17   6  62 SE5       30.52F WCI  10
PEORIA         LGT SNOW  22  17  81 SE6       30.51S WCI  14
$$

NOTE: "FAIR" INDICATES FEW OR NO CLOUDS BELOW 12,000 FEET WITH NO
SIGNIFICANT WEATHER AND/OR OBSTRUCTIONS TO VISIBILITY. WIND
SPEEDS ARE IN MILES-PER-HOUR.



USA.gov is the U.S. government's official web portal to all federal, state and local government web resources and services.